User: anonymous   Login
Location: Unspecified
(0.0000°N, 0.0000°E)
Time: 00:47:50
(UTC+00:00)
Language:

Tiros 8 - Orbit

View from above orbital plane
View from above orbital plane
View from above satellite
View from above satellite

Ground track
Ground track

The orbit data is extracted from the following two-line orbital elements,

1   716U 63054A   18265.57903054 -.00000141 +00000-0 +72016-5 0  9995
2   716 058.4970 017.1131 0019482 207.6219 152.3786 14.69449655900255
Epoch (UTC): 22 September 2018 13:53:48
Eccentricity: 0.0019482
inclination: 58.4970°
perigee height: 649 km
apogee height: 676 km
right ascension of ascending node: 17.1131°
argument of perigee: 207.6219°
revolutions per day: 14.69449655
mean anomaly at epoch: 152.3786°
orbit number at epoch: 90025

The dashed part of the orbit path shows where the satellite is in the earth's shadow,  

DLR